Wetbulb
55.77 55.45 55.51 55.21 55.09 54.73 54.23 53.99 53.43 53.91 54.86 54.99 54.93 54.27 54.02 54.85 53.94 53.04 52.16 52.65 52.91 52.72 52.92 53.06 52.58 52.73 47.70 39.12 39.61 50.45 54.68 53.13 53.55 54.20 50.34 47.93 45.77 43.72 43.77 46.85 46.05 44.01 47.06 49.43 50.33 49.26 48.25
55.40 55.40 55.37 54.99 55.00 54.60 54.16 53.68 53.42 53.29 53.98 54.38 54.56 53.67 53.68 54.11 53.62 52.67 51.97 52.10 52.39 52.48 52.93 53.20 52.92 51.82 42.86 32.24 47.32 49.88 50.32 50.27 52.07 52.57 50.16 50.49 46.28 46.90 44.85 46.69 45.32 45.54 46.96 48.23 48.84 48.31 48.48
54.92 55.35 55.12 54.93 54.62 54.47 53.91 53.35 53.10 52.93 53.77 53.74 53.80 53.22 53.95 53.21 53.31 52.98 52.15 52.10 51.78 51.90 52.32 52.98 52.74 49.19 41.04 36.46 47.73 49.98 48.99 49.96 51.93 52.47 49.53 52.17 49.46 46.53 45.75 43.87 48.76 47.55 44.23 44.11 45.64 47.25 46.70
54.49 54.98 54.91 54.77 54.34 54.04 53.90 53.28 52.90 52.76 53.02 53.28 53.21 52.91 53.38 53.69 53.53 53.33 52.52 52.09 51.73 51.63 51.93 52.50 52.14 44.56 34.34 46.25 46.11 47.19 48.32 48.55 51.72 53.93 53.40 53.91 52.15 46.79 44.61 44.79 44.52 42.92 43.55 38.65 42.87 46.68 47.43
54.10 54.60 54.58 54.49 54.31 54.02 53.60 53.38 52.87 52.83 52.71 53.00 52.97 52.52 52.87 53.29 53.62 53.49 53.44 52.27 51.74 51.35 51.17 51.37 44.64 40.48 34.03 48.98 44.40 46.54 48.74 46.24 49.82 52.29 53.34 54.36 50.55 43.58 44.68 39.48 37.02 39.77 35.62 35.99 38.68 46.26 46.29
53.87 54.09 54.20 54.12 54.11 54.24 53.91 53.41 52.84 52.86 52.86 52.31 52.61 52.23 52.32 52.75 53.40 53.71 52.42 52.05 51.57 49.57 48.81 48.86 46.84 34.76 39.23 39.12 45.26 46.91 49.84 49.92 47.41 48.88 47.77 47.81 44.86 38.36 40.02 36.44 31.25 35.04 34.54 36.25 34.57 41.30 44.03
53.45 53.67 53.88 53.83 53.79 53.89 53.84 53.47 52.85 52.70 52.64 52.17 52.02 52.04 52.02 52.42 53.23 53.29 46.24 41.43 37.89 35.77 41.16 37.98 38.92 37.30 40.66 44.57 47.85 45.58 48.95 46.93 46.89 45.19 39.63 42.82 38.72 34.06 34.84 37.21 36.47 36.34 34.05 33.77 36.77 41.92 40.96
53.06 53.38 53.46 53.65 53.50 53.82 53.70 53.46 53.18 52.78 52.47 52.21 51.60 51.81 52.05 52.19 53.09 51.06 43.60 38.49 39.08 40.10 34.37 43.27 42.82 42.09 44.15 44.21 39.24 42.94 48.37 42.53 41.07 38.03 40.51 39.05 35.49 37.38 41.14 39.68 38.38 37.07 33.63 30.95 35.90 40.52 40.01
52.81 53.13 53.09 53.35 53.25 53.56 53.49 53.24 53.00 52.95 52.59 51.98 51.37 51.63 51.85 52.13 52.55 45.19 41.39 41.36 45.52 43.51 35.13 41.02 43.56 42.51 42.49 43.58 39.83 39.64 45.80 43.66 39.82 37.48 37.39 35.45 38.56 41.61 40.84 38.60 36.78 33.87 32.18 31.24 32.67 36.53 37.78
52.70 52.81 52.78 53.10 52.98 53.12 53.13 53.03 53.02 52.90 52.43 51.76 51.42 51.59 51.73 52.18 44.23 42.32 39.85 45.11 44.97 43.11 24.64 35.60 39.35 41.20 44.10 42.09 37.62 45.85 47.80 43.32 39.70 36.94 37.05 38.22 42.15 40.05 38.87 37.70 37.24 31.51 37.26 36.79 35.53 33.59 30.21
52.56 52.54 52.38 52.66 52.69 52.79 52.83 53.03 52.99 52.75 52.09 51.59 51.60 51.65 51.47 51.54 41.55 39.47 42.87 46.38 44.05 39.36 14.42 36.97 40.31 47.97 45.39 39.23 38.46 41.36 48.13 45.04 37.89 37.44 37.88 35.61 39.19 37.28 36.27 38.19 39.20 34.91 39.45 36.48 34.53 31.14 29.92
52.30 52.26 51.89 52.21 52.33 52.48 52.49 52.73 52.71 52.45 51.81 51.43 51.66 51.65 51.60 47.83 44.86 45.47 48.72 44.80 40.09 22.85 15.34 34.51 40.50 40.36 39.80 40.44 40.46 42.91 42.76 45.97 44.25 39.82 40.36 38.75 41.51 39.29 37.41 40.01 40.32 41.55 36.78 35.32 33.00 29.90 26.85
52.06 51.88 51.35 51.73 51.93 52.19 52.23 52.46 52.45 52.15 51.56 51.21 51.85 52.06 49.71 46.78 41.59 48.69 47.51 37.98 22.60 18.25 30.25 31.43 36.69 38.81 38.41 36.87 37.74 38.77 38.52 37.10 33.39 27.99 32.59 36.92 37.52 39.90 40.05 35.79 39.21 37.93 34.29 23.71 21.10 26.17 23.92
52.04 51.63 50.96 51.16 51.68 51.95 52.00 52.19 52.14 51.92 51.22 51.48 51.54 51.96 49.82 47.11 46.20 48.85 44.13 28.14 19.14 27.75 28.19 35.71 37.54 39.18 36.25 38.28 37.66 37.80 37.44 34.27 38.28 35.98 34.21 31.43 29.77 37.31 39.67 34.96 34.78 34.13 33.16 24.06 18.63 20.28 21.32
52.00 51.25 50.52 50.66 51.43 51.61 51.70 51.89 51.80 51.48 51.22 51.33 49.93 43.72 43.42 45.57 46.83 46.44 35.40 20.97 22.64 23.82 29.85 33.67 34.70 35.10 34.47 38.51 37.80 37.57 36.47 34.62 35.80 35.74 29.45 27.59 29.78 38.62 40.31 39.48 37.47 34.04 30.44 31.71 26.67 20.18 17.17
51.94 51.03 50.22 50.30 50.92 51.15 51.31 51.50 51.44 51.11 51.65 50.02 41.56 41.23 42.49 46.95 46.01 40.46 29.34 28.21 28.49 34.54 36.08 36.55 29.74 31.55 29.26 33.63 33.60 35.19 35.37 37.08 36.32 37.33 36.07 32.14 26.27 36.82 38.19 41.43 39.64 37.11 36.59 29.24 28.43 19.82 17.80
51.97 50.84 50.03 49.63 50.11 50.34 50.69 50.98 50.96 50.81 51.30 49.11 41.60 38.46 44.05 46.86 43.31 33.97 24.61 23.83 34.48 39.50 39.28 35.09 31.50 30.94 29.70 32.13 34.04 32.29 32.81 35.45 38.12 37.90 37.79 33.76 29.55 32.56 37.57 35.09 34.95 36.27 34.45 32.81 30.11 25.19 18.37
52.04 50.84 49.92 49.03 49.36 49.65 50.14 50.43 50.50 50.41 50.49 43.90 37.14 32.22 43.40 44.89 32.78 29.57 26.09 32.40 40.15 38.22 39.28 37.86 35.82 33.95 31.57 33.14 33.23 31.16 31.48 35.36 39.55 39.66 35.15 36.29 30.11 25.40 31.00 37.20 39.45 38.50 35.72 35.26 28.94 24.08 21.39
52.04 50.90 49.99 48.59 48.71 49.07 49.52 49.90 49.86 49.83 49.00 39.47 35.49 35.65 41.91 41.24 26.36 25.82 33.23 36.36 38.28 37.25 36.43 35.52 34.69 36.24 35.39 32.77 31.21 31.88 33.39 38.35 39.64 39.10 35.85 36.06 28.82 24.70 29.67 33.51 37.67 35.10 36.45 36.54 34.26 29.08 18.11
51.99 50.88 49.91 48.45 48.04 48.74 49.11 49.40 49.35 49.26 48.85 39.51 33.34 28.05 31.95 35.21 33.35 30.14 30.90 32.49 34.66 38.80 38.25 37.94 35.59 35.29 33.42 32.04 33.54 30.98 32.69 36.93 38.44 38.46 43.53 41.85 31.96 27.01 22.66 25.97 30.60 32.56 32.84 35.67 34.70 29.68 28.98
51.91 50.86 49.83 48.51 47.70 48.04 48.79 48.99 48.92 48.66 46.72 36.78 30.90 29.32 29.78 23.85 26.89 28.72 30.31 32.70 33.06 33.87 37.53 37.17 34.56 34.47 32.96 29.09 30.67 30.34 32.89 33.72 36.58 40.21 38.60 37.73 28.98 30.41 31.07 30.72 31.67 31.03 32.32 33.83 32.88 33.91 29.65
51.94 50.92 49.82 48.63 47.68 47.42 48.43 48.61 48.42 47.93 44.27 34.17 29.09 27.95 28.20 26.59 28.85 27.02 30.62 30.47 30.79 32.58 33.92 34.29 33.02 35.22 34.62 31.80 32.22 30.03 32.91 32.42 32.51 33.25 33.89 35.14 29.42 27.07 23.35 29.65 30.11 28.76 30.49 31.40 33.35 33.86 34.39
51.96 51.03 50.16 48.92 47.97 47.11 47.75 48.22 48.03 47.23 40.40 30.80 31.12 33.56 30.49 28.02 26.20 24.33 27.10 28.25 29.18 31.18 32.75 36.45 32.76 31.04 32.47 37.16 38.59 39.21 38.56 36.67 34.71 33.47 31.30 30.77 28.47 24.33 21.54 27.21 26.67 22.26 28.86 30.19 30.49 33.21 34.27
52.14 51.26 50.44 49.27 48.21 47.32 47.16 47.92 47.74 46.76 41.37 34.34 32.91 31.61 26.50 25.39 26.36 26.27 28.08 27.73 27.68 29.41 30.70 32.64 33.00 31.20 35.15 42.47 41.12 39.43 38.03 35.75 33.93 34.62 34.82 29.57 27.31 25.88 21.06 23.19 15.82 27.39 31.71 32.56 31.64 33.58 34.79
52.06 51.26 50.71 49.60 48.59 47.60 47.24 47.59 47.63 46.53 44.85 35.93 34.24 30.96 27.33 24.47 25.74 26.25 26.35 26.53 27.62 29.42 28.99 30.43 33.31 34.32 37.44 38.85 32.74 33.48 32.54 32.75 32.52 33.03 32.48 33.30 29.82 28.30 25.41 21.94 23.96 29.03 28.76 29.94 29.33 29.85 33.69
52.59 51.44 50.96 49.93 49.07 48.11 47.48 47.29 47.46 47.05 44.86 36.46 34.70 34.44 30.06 26.06 24.92 27.50 25.53 25.67 25.41 23.79 27.06 30.71 34.07 37.23 35.03 35.80 33.97 29.22 26.54 28.19 27.36 28.64 30.68 32.68 33.70 31.54 24.82 22.18 18.36 25.70 32.68 34.37 33.33 26.30 34.50
52.98 52.23 51.45 50.53 49.51 48.77 47.89 47.37 47.20 47.22 45.52 37.75 35.40 35.12 31.49 27.03 28.29 27.36 24.98 25.37 27.49 26.20 24.59 26.15 29.28 28.99 33.45 32.93 30.08 28.82 28.04 30.98 26.22 26.03 27.11 29.81 31.58 28.40 27.20 25.68 25.28 31.38 33.26 35.03 24.06 27.14 36.25
53.13 52.70 52.08 51.49 50.50 49.40 48.79 48.02 47.46 47.28 46.38 39.22 35.89 36.99 33.93 28.74 30.13 32.41 31.64 28.18 28.14 26.96 26.28 28.37 26.88 31.25 31.40 30.22 31.89 31.15 29.75 30.64 27.70 28.65 27.87 28.64 26.83 27.97 28.44 26.75 22.31 33.87 34.43 30.51 33.74 36.35 37.21
53.19 52.87 52.40 51.69 51.14 50.34 49.64 48.92 48.24 47.59 47.24 42.86 35.00 38.98 39.73 36.15 33.16 35.48 35.62 36.28 34.79 33.70 31.91 32.39 26.80 27.24 29.58 27.52 27.87 28.15 29.71 30.93 28.65 24.53 28.21 26.84 29.87 27.92 28.46 28.18 33.98 34.55 36.34 37.59 37.86 38.29 38.66
MSLP
1023.00 1022.70 1022.47 1022.10 1021.85 1021.50 1021.17 1020.94 1020.66 1020.29 1019.72 1019.03 1018.62 1018.24 1017.86 1017.37 1017.04 1016.77 1016.57 1016.29 1016.11 1016.15 1016.10 1015.93 1015.79 1015.79 1015.73 1015.78 1015.43 1014.71 1014.46 1014.45 1013.88 1013.96 1014.67 1014.98 1015.22 1015.23 1015.16 1014.95 1015.30 1015.43 1015.29 1015.84 1016.22 1016.74 1017.07
1022.98 1022.73 1022.42 1022.11 1021.85 1021.50 1021.18 1020.94 1020.60 1020.20 1019.71 1019.10 1018.79 1018.37 1017.99 1017.62 1017.34 1016.95 1016.72 1016.63 1016.47 1016.36 1016.26 1016.18 1016.13 1016.03 1016.16 1015.94 1015.41 1014.87 1014.51 1014.24 1014.11 1014.16 1014.68 1014.98 1015.11 1015.00 1015.18 1014.94 1015.16 1015.34 1015.54 1016.28 1017.03 1017.08 1017.42
1022.86 1022.62 1022.37 1022.05 1021.75 1021.49 1021.16 1020.89 1020.57 1020.14 1019.71 1019.27 1018.91 1018.63 1018.09 1017.74 1017.52 1017.18 1016.93 1016.79 1016.75 1016.65 1016.50 1016.37 1016.39 1016.53 1016.36 1016.06 1015.40 1014.78 1014.80 1014.37 1014.32 1013.96 1014.62 1014.79 1014.92 1015.03 1015.13 1015.32 1015.39 1015.52 1016.29 1016.71 1017.01 1017.03 1017.75
1022.70 1022.51 1022.24 1021.99 1021.63 1021.29 1021.12 1020.75 1020.46 1020.08 1019.61 1019.33 1018.88 1018.69 1018.27 1017.79 1017.60 1017.33 1017.07 1016.89 1016.77 1016.76 1016.66 1016.52 1016.45 1016.85 1016.30 1015.58 1015.52 1015.34 1014.92 1014.78 1014.62 1014.22 1014.27 1014.68 1015.01 1015.26 1015.29 1015.41 1015.65 1016.00 1016.39 1017.06 1017.34 1017.68 1017.92
1022.54 1022.39 1022.17 1022.01 1021.59 1021.23 1020.88 1020.61 1020.33 1019.94 1019.53 1019.31 1018.94 1018.72 1018.36 1017.95 1017.66 1017.45 1017.18 1016.92 1016.84 1016.58 1016.55 1016.59 1016.78 1016.93 1016.23 1015.27 1015.50 1015.47 1015.34 1014.86 1014.70 1014.70 1014.64 1014.89 1015.19 1015.50 1015.56 1015.94 1016.60 1016.79 1016.81 1017.05 1017.61 1017.44 1017.54
1022.43 1022.25 1022.06 1021.89 1021.54 1021.13 1020.77 1020.51 1020.28 1019.89 1019.56 1019.28 1018.89 1018.55 1018.39 1018.01 1017.56 1017.28 1017.03 1016.95 1016.85 1016.87 1016.67 1016.65 1016.93 1017.30 1016.40 1016.24 1016.06 1015.76 1015.30 1015.00 1014.91 1014.93 1015.35 1015.54 1015.86 1016.04 1016.08 1016.43 1016.50 1017.02 1017.12 1017.12 1017.16 1017.35 1017.39
1022.24 1022.14 1021.96 1021.73 1021.50 1021.06 1020.64 1020.40 1020.16 1019.77 1019.44 1019.09 1018.74 1018.49 1018.29 1017.89 1017.59 1017.18 1017.25 1017.37 1017.76 1017.74 1017.32 1017.61 1017.54 1017.30 1016.98 1016.51 1016.13 1016.02 1015.66 1015.51 1015.16 1015.03 1015.93 1016.31 1016.29 1015.97 1016.49 1016.59 1016.72 1017.14 1017.19 1017.24 1017.00 1016.63 1017.10
1021.99 1021.90 1021.78 1021.54 1021.36 1020.97 1020.55 1020.32 1020.00 1019.58 1019.22 1018.94 1018.64 1018.46 1018.19 1017.88 1017.56 1017.35 1017.61 1017.99 1018.10 1018.24 1018.06 1017.45 1017.28 1017.12 1017.13 1017.01 1016.46 1016.21 1015.86 1015.63 1015.57 1016.05 1016.69 1016.34 1015.98 1016.34 1016.70 1016.84 1016.90 1017.12 1017.25 1017.34 1017.11 1016.76 1016.90
1021.83 1021.71 1021.57 1021.28 1021.16 1020.85 1020.48 1020.19 1019.79 1019.29 1018.99 1018.73 1018.51 1018.27 1018.06 1017.83 1017.67 1017.68 1017.99 1018.21 1017.99 1018.09 1018.08 1017.61 1017.32 1017.11 1017.24 1017.21 1016.79 1016.65 1016.26 1016.04 1016.50 1016.85 1017.39 1016.68 1016.26 1016.42 1016.76 1016.97 1017.25 1017.45 1017.39 1017.58 1017.45 1017.21 1017.17
1021.63 1021.53 1021.47 1021.13 1020.92 1020.74 1020.36 1020.03 1019.61 1019.20 1018.83 1018.51 1018.35 1018.02 1017.72 1017.70 1018.02 1018.01 1018.11 1017.95 1018.07 1018.10 1018.27 1018.19 1017.41 1017.33 1017.20 1017.18 1017.03 1016.71 1016.51 1016.54 1016.89 1017.40 1017.70 1017.18 1016.61 1016.67 1017.04 1017.29 1017.36 1017.47 1017.40 1017.63 1017.93 1018.13 1018.10
1021.46 1021.28 1021.27 1021.07 1020.84 1020.57 1020.22 1019.85 1019.39 1019.10 1018.68 1018.16 1018.09 1017.69 1017.50 1017.46 1017.92 1018.00 1017.91 1017.86 1017.91 1018.14 1018.52 1018.18 1017.34 1017.21 1016.82 1017.27 1017.27 1016.67 1016.42 1016.13 1016.89 1017.55 1018.01 1017.66 1017.07 1017.09 1017.42 1017.37 1017.29 1017.67 1017.43 1017.82 1018.32 1018.85 1018.84
1021.15 1020.99 1021.01 1020.93 1020.78 1020.43 1020.07 1019.69 1019.29 1018.90 1018.38 1017.91 1017.60 1017.45 1017.42 1017.84 1018.01 1017.73 1017.59 1017.82 1018.29 1018.84 1019.05 1018.12 1017.54 1017.05 1017.03 1016.86 1017.27 1016.88 1016.45 1016.39 1016.97 1017.62 1017.71 1017.56 1017.49 1017.57 1017.70 1017.73 1017.61 1017.82 1018.06 1018.62 1019.33 1019.83 1019.79
1020.80 1020.67 1020.67 1020.77 1020.65 1020.31 1019.91 1019.52 1019.12 1018.59 1018.11 1017.56 1017.17 1017.19 1017.50 1017.58 1017.88 1017.54 1017.66 1018.60 1019.01 1018.77 1019.11 1018.34 1017.36 1016.84 1016.47 1016.77 1017.16 1017.20 1016.86 1016.78 1017.35 1017.93 1017.86 1017.74 1018.11 1018.12 1017.86 1018.00 1018.12 1018.20 1018.81 1019.86 1020.70 1020.85 1020.15
1020.60 1020.50 1020.35 1020.47 1020.40 1020.22 1019.84 1019.40 1018.95 1018.33 1017.80 1017.29 1016.87 1017.08 1017.34 1017.56 1017.57 1017.53 1017.91 1019.08 1019.03 1019.31 1018.78 1017.88 1017.34 1016.66 1016.38 1016.28 1016.70 1017.07 1017.15 1016.99 1017.16 1017.31 1017.94 1018.21 1018.78 1018.35 1018.13 1018.18 1018.28 1018.78 1019.24 1019.99 1020.65 1021.22 1020.62
1020.25 1020.40 1020.34 1020.25 1020.07 1020.12 1019.76 1019.30 1018.68 1018.06 1017.49 1017.00 1016.94 1017.73 1017.90 1017.67 1017.75 1017.89 1018.45 1018.90 1019.00 1018.88 1018.16 1017.37 1016.87 1016.61 1016.46 1016.33 1016.60 1016.77 1016.88 1016.85 1016.73 1016.77 1017.75 1018.14 1018.48 1018.46 1018.41 1018.32 1018.59 1019.14 1019.48 1019.96 1020.78 1021.69 1021.27
1019.84 1020.07 1020.26 1020.12 1019.93 1019.91 1019.54 1019.21 1018.48 1017.81 1017.14 1016.83 1017.43 1017.93 1018.18 1017.85 1017.96 1018.47 1018.82 1019.32 1018.86 1017.84 1017.18 1016.87 1016.35 1016.03 1016.03 1016.30 1016.70 1016.83 1016.67 1016.47 1016.66 1016.57 1016.97 1017.57 1018.38 1018.51 1018.54 1018.40 1018.68 1018.75 1019.14 1020.05 1020.94 1021.50 1021.09
1019.34 1019.67 1020.11 1019.91 1019.86 1019.80 1019.43 1018.98 1018.40 1017.63 1017.07 1016.87 1017.54 1018.21 1018.34 1018.01 1018.14 1018.82 1019.41 1019.33 1018.03 1016.91 1016.77 1016.55 1016.20 1015.88 1015.69 1015.88 1016.23 1016.67 1016.58 1016.08 1016.21 1016.89 1017.07 1017.49 1017.77 1018.89 1018.60 1018.31 1018.14 1018.76 1018.92 1019.48 1019.87 1020.65 1020.63
1018.77 1019.31 1019.74 1019.78 1019.81 1019.56 1019.38 1018.76 1018.33 1017.48 1016.99 1017.04 1017.99 1018.80 1018.23 1018.24 1018.80 1019.52 1019.64 1018.67 1017.38 1016.67 1016.35 1016.14 1015.86 1015.86 1015.61 1015.42 1015.71 1016.06 1015.86 1015.33 1015.54 1016.18 1016.79 1016.96 1017.63 1018.33 1018.15 1017.93 1017.77 1017.82 1018.26 1018.93 1019.51 1020.33 1020.54
1018.25 1018.90 1019.36 1019.57 1019.70 1019.44 1019.21 1018.73 1018.24 1017.45 1017.05 1017.63 1018.78 1019.00 1018.34 1018.34 1019.56 1020.09 1019.29 1018.54 1017.69 1016.82 1016.19 1015.84 1015.42 1014.96 1014.94 1015.02 1015.24 1015.13 1014.93 1014.72 1014.83 1015.54 1015.97 1016.50 1017.25 1018.08 1018.25 1018.38 1017.94 1017.96 1017.97 1018.23 1018.83 1019.62 1019.28
1017.85 1018.44 1019.02 1019.32 1019.46 1019.31 1019.08 1018.52 1018.10 1017.42 1017.14 1017.61 1019.25 1019.90 1019.52 1019.53 1020.27 1020.37 1020.00 1018.90 1017.71 1016.40 1016.04 1015.39 1015.18 1015.16 1015.14 1015.07 1014.57 1014.67 1014.67 1014.44 1014.57 1015.00 1015.51 1015.96 1016.77 1017.21 1017.37 1017.02 1017.09 1017.57 1017.50 1017.76 1018.24 1018.22 1017.75
1017.58 1018.15 1018.69 1018.97 1019.11 1019.14 1018.82 1018.44 1017.96 1017.34 1017.10 1017.73 1019.85 1021.38 1021.29 1021.06 1020.80 1020.64 1020.38 1019.47 1018.38 1017.39 1016.61 1016.14 1015.69 1015.53 1015.45 1015.38 1015.20 1014.68 1014.49 1014.58 1014.59 1014.60 1015.26 1015.93 1016.71 1017.15 1017.07 1016.98 1017.06 1016.93 1016.86 1017.10 1017.25 1017.07 1016.52
1017.15 1017.92 1018.30 1018.65 1018.94 1018.94 1018.65 1018.38 1017.96 1017.42 1017.41 1018.56 1020.47 1021.24 1021.58 1021.27 1020.93 1020.76 1020.37 1019.66 1019.06 1018.47 1018.14 1017.05 1016.81 1016.56 1016.30 1016.16 1015.38 1014.83 1014.47 1014.58 1014.56 1015.01 1015.34 1016.11 1016.83 1017.22 1017.29 1016.89 1016.86 1016.75 1016.46 1016.39 1016.19 1015.86 1015.43
1016.64 1017.29 1017.86 1018.44 1018.75 1018.79 1018.72 1018.50 1018.15 1017.56 1017.46 1019.65 1021.00 1021.10 1021.00 1021.50 1021.25 1021.11 1020.62 1020.07 1019.69 1019.56 1018.29 1017.81 1017.81 1017.61 1016.66 1016.09 1015.59 1014.81 1014.15 1014.12 1014.25 1014.76 1015.52 1016.16 1016.94 1017.69 1017.70 1017.30 1016.97 1016.49 1014.70 1014.76 1014.68 1014.22 1013.94
1016.11 1016.86 1017.49 1018.03 1018.55 1018.72 1018.95 1018.56 1018.45 1018.06 1018.05 1019.52 1020.97 1021.37 1021.56 1021.69 1021.33 1020.89 1020.69 1020.62 1020.25 1019.90 1019.45 1018.53 1017.99 1017.40 1016.77 1015.98 1015.80 1014.72 1014.39 1014.23 1014.41 1014.71 1014.97 1016.00 1016.74 1017.35 1017.82 1017.58 1016.76 1014.15 1013.31 1013.27 1013.52 1013.06 1013.06
1015.62 1016.45 1017.20 1017.67 1018.27 1018.63 1018.95 1018.68 1018.73 1018.68 1018.76 1019.69 1020.78 1021.22 1021.83 1021.80 1021.52 1021.01 1020.89 1020.72 1020.40 1019.86 1019.70 1018.68 1017.72 1017.66 1017.03 1016.36 1016.13 1015.12 1014.54 1014.49 1014.48 1014.55 1014.98 1015.18 1016.23 1017.00 1017.39 1017.31 1015.49 1013.41 1012.88 1012.97 1012.87 1011.92 1011.39
1015.15 1015.99 1016.67 1017.34 1017.84 1018.49 1018.89 1018.86 1018.75 1018.90 1019.25 1019.94 1020.85 1021.02 1021.64 1022.28 1022.27 1021.50 1021.36 1021.27 1020.97 1020.30 1019.81 1018.83 1018.00 1017.13 1016.98 1016.50 1015.89 1014.93 1014.25 1013.82 1014.39 1014.75 1014.86 1015.38 1015.48 1015.97 1016.91 1016.55 1015.34 1013.28 1012.26 1011.98 1012.14 1011.68 1010.76
1014.53 1015.56 1016.18 1016.94 1017.53 1018.26 1018.67 1018.95 1018.80 1019.01 1019.38 1019.91 1020.88 1021.03 1021.45 1022.19 1021.96 1021.72 1021.58 1021.39 1020.91 1020.84 1020.58 1019.94 1019.38 1018.10 1017.12 1016.22 1015.84 1015.31 1014.43 1013.48 1013.95 1014.43 1015.13 1015.44 1015.51 1015.47 1015.68 1015.25 1013.93 1012.49 1012.06 1012.09 1012.11 1011.57 1010.60
1014.04 1015.03 1015.71 1016.47 1017.18 1017.94 1018.39 1018.74 1018.80 1018.99 1019.37 1020.05 1021.04 1021.00 1021.26 1021.91 1021.68 1021.13 1020.90 1020.88 1020.79 1020.70 1020.47 1020.13 1019.70 1018.69 1018.11 1017.34 1015.95 1015.35 1014.79 1014.11 1013.65 1013.36 1013.73 1014.22 1014.73 1014.63 1014.90 1014.44 1013.18 1011.54 1011.93 1011.82 1010.86 1010.34 1010.16
1013.49 1014.42 1015.30 1016.02 1016.88 1017.62 1018.14 1018.49 1018.68 1018.95 1019.29 1019.82 1021.04 1021.15 1021.14 1021.71 1021.06 1020.46 1019.82 1019.57 1019.60 1019.86 1020.36 1020.35 1020.31 1020.34 1019.51 1019.34 1018.62 1017.47 1015.83 1014.62 1014.18 1013.76 1013.35 1013.42 1012.74 1013.16 1013.06 1012.29 1011.23 1011.07 1010.71 1010.33 1010.28 1010.30 1009.91
Wind_Speed
8 10 11 13 14 14 15 16 16 16 16 16 17 17 18 16 12 9 10 9 9 8 8 9 7 7 3 2 3 9 11 14 8 7 8 4 5 3 5 5 6 1 4 8 7 5 4
8 10 11 12 13 14 14 15 16 15 15 16 15 16 14 15 11 10 8 8 8 8 9 8 7 7 3 1 3 7 6 8 6 10 7 5 6 5 3 3 5 6 5 12 7 5 6
7 9 10 11 12 14 14 14 15 15 15 15 14 13 14 12 12 9 9 8 7 7 7 8 7 3 2 1 2 7 7 6 7 6 7 5 1 3 3 5 2 4 7 6 5 6 4
6 8 9 11 12 13 14 13 14 14 13 14 14 13 13 12 11 10 8 6 5 5 5 5 6 3 2 3 2 6 5 1 5 4 4 6 3 2 3 1 5 5 5 6 6 13 8
6 7 8 10 11 12 13 14 14 14 15 14 14 13 12 12 11 11 12 5 4 2 1 3 4 2 2 7 4 4 3 2 2 3 5 4 3 2 3 6 4 3 4 6 7 14 8
6 7 8 9 11 12 13 14 14 15 15 14 15 13 12 12 11 12 9 5 3 3 1 1 1 3 4 4 4 5 4 2 2 7 6 4 1 3 2 3 13 6 5 2 5 11 10
5 7 7 9 11 12 13 14 14 15 15 15 13 14 12 11 10 10 4 3 5 3 7 2 5 2 4 7 2 5 3 2 1 5 4 6 5 10 4 3 5 6 6 6 3 4 9
5 7 7 9 10 12 13 14 15 15 15 16 15 13 13 10 10 5 3 4 1 2 3 2 3 1 2 2 4 6 6 1 1 5 3 4 7 7 7 3 5 6 6 2 1 2 6
6 7 7 8 10 12 13 14 15 15 15 16 16 13 11 9 7 4 3 3 1 1 3 3 2 3 2 5 3 5 6 2 6 6 2 2 4 8 6 4 5 2 6 4 2 2 2
7 7 7 9 10 12 13 14 15 16 16 16 17 14 9 7 1 1 2 2 1 3 4 5 2 2 1 2 4 1 3 2 4 5 4 1 2 11 7 4 5 3 3 5 2 3 3
8 7 7 9 10 12 13 15 16 17 17 17 17 12 5 1 4 2 2 4 3 4 7 7 3 1 1 2 2 5 2 2 4 7 1 2 6 9 5 4 3 3 2 5 3 4 3
9 7 7 7 10 12 13 15 16 17 17 17 17 9 3 3 1 1 5 4 4 7 2 3 2 1 2 2 3 2 3 3 3 3 1 2 1 4 3 3 3 4 5 7 5 3 2
10 8 6 7 9 12 13 15 16 17 18 19 14 5 5 3 2 4 3 4 6 8 1 2 2 2 0 3 3 2 1 4 3 4 0 4 3 1 2 6 3 5 4 2 2 2 6
11 8 5 6 8 11 13 15 17 18 19 18 10 5 2 1 1 3 3 5 9 4 2 2 2 1 3 1 3 3 3 4 2 5 3 3 4 4 1 2 5 4 6 5 6 4 4
11 8 5 5 8 10 12 15 16 18 17 13 5 2 2 2 3 1 4 6 6 5 4 2 2 2 2 2 3 2 3 2 5 6 5 3 2 2 1 2 1 4 4 4 4 2 3
12 9 5 4 7 11 13 15 17 18 16 7 3 2 2 3 3 4 5 1 0 3 3 1 1 2 3 5 3 2 2 3 3 5 3 4 4 1 2 1 3 1 5 3 2 2 4
13 9 5 3 6 9 13 15 18 19 16 4 4 4 2 1 3 4 4 5 4 5 4 2 2 2 1 4 5 5 6 3 3 5 5 5 4 2 6 5 6 3 3 1 4 5 5
14 10 6 1 5 8 12 14 17 18 11 7 3 3 2 1 4 2 2 3 3 3 2 3 1 3 3 3 5 4 7 5 9 8 7 6 5 4 4 1 2 4 4 5 3 5 1
15 11 7 1 4 7 10 13 15 17 6 4 3 1 2 3 4 4 6 4 3 2 3 3 4 6 4 4 3 6 5 4 9 9 8 7 1 3 1 2 0 5 7 8 3 2 7
15 12 8 4 2 6 9 13 15 16 2 5 4 3 5 5 1 2 4 4 5 3 5 5 4 2 3 4 6 3 4 4 8 7 8 5 3 6 8 6 5 6 9 14 12 9 7
16 13 10 6 1 4 8 12 15 16 3 5 4 1 3 3 2 2 1 2 4 5 3 3 3 4 4 3 4 5 4 2 2 5 4 5 6 5 5 4 4 6 9 15 20 18 14
17 15 11 7 3 2 7 11 15 16 6 6 5 5 0 2 1 2 1 1 3 6 4 6 4 9 3 4 5 4 4 4 6 3 7 3 2 3 4 2 6 5 8 13 20 21 22
19 17 14 10 6 2 5 8 14 17 6 4 1 2 4 1 1 3 3 2 2 3 6 5 6 9 8 6 8 9 6 2 4 8 7 7 6 3 5 3 4 6 16 17 8 9 19
20 19 16 13 9 5 2 8 11 15 10 4 2 3 3 2 2 4 0 1 4 4 6 9 11 6 6 9 14 7 5 6 4 5 6 6 6 3 2 3 4 9 2 5 13 16 15
22 20 18 15 12 8 5 6 10 13 12 5 2 4 3 2 0 3 1 3 6 6 4 6 11 5 6 6 1 5 3 3 6 6 7 7 5 3 3 4 7 10 2 6 8 7 11
23 21 20 17 14 11 7 6 8 10 9 5 2 2 4 3 2 1 1 1 3 3 6 5 6 8 4 4 4 5 5 5 5 1 3 4 2 5 3 4 6 6 2 4 3 6 2
24 22 20 19 15 13 10 8 8 9 8 4 2 2 4 2 3 2 2 3 2 1 4 5 7 7 2 3 4 5 4 5 6 8 6 4 3 8 5 5 7 9 6 4 2 6 2
24 22 20 18 17 15 13 11 9 10 9 5 0 1 4 1 4 6 5 5 3 3 3 4 6 1 3 3 3 3 4 4 2 6 8 9 8 4 4 4 9 7 4 6 6 3 3
25 22 20 18 17 16 14 13 11 10 10 6 2 0 2 1 6 6 8 11 11 9 5 2 3 4 2 3 4 5 5 2 2 3 2 4 8 7 9 8 4 6 5 4 3 3 3
Wind_Direction
345 357 358 360 2 357 358 358 352 352 348 349 358 5 6 11 25 28 28 28 25 23 18 16 9 359 356 27 327 311 325 319 300 152 169 159 131 149 202 144 115 197 119 116 88 64 62
345 347 357 358 0 357 358 359 355 348 350 348 357 360 13 16 23 18 23 21 17 27 17 16 11 354 5 44 246 293 345 334 341 164 173 187 162 196 156 123 145 160 140 139 166 124 36
340 342 352 355 1 354 356 358 354 349 349 348 347 354 1 9 13 6 13 22 17 26 9 1 6 1 5 183 268 321 338 350 320 165 165 182 162 121 145 125 196 110 109 95 162 156 127
332 336 345 348 353 355 356 356 353 347 346 342 344 347 348 357 358 356 344 354 355 10 3 357 24 25 261 261 248 299 298 250 335 47 123 139 63 79 107 96 48 118 110 139 172 155 148
318 328 337 343 346 350 355 351 351 345 341 348 339 339 341 346 348 346 341 326 335 359 5 356 26 42 355 321 20 326 336 343 14 113 68 153 57 139 94 104 90 41 154 127 161 179 143
301 316 330 337 341 345 349 350 348 345 341 345 337 334 336 335 343 342 344 309 343 3 19 96 260 20 350 316 320 323 323 303 18 126 73 46 106 108 70 111 185 158 105 140 139 194 171
282 306 321 332 336 342 347 347 346 344 342 339 339 330 330 327 337 349 19 27 16 353 42 125 274 253 307 309 286 351 343 300 268 59 115 231 168 192 139 140 147 123 110 139 197 201 183
262 291 312 326 332 335 343 347 344 342 343 339 335 329 323 323 329 13 66 83 78 205 77 44 319 326 283 305 25 348 344 83 76 117 103 291 170 152 145 178 116 140 120 118 318 141 164
250 280 303 320 329 330 342 345 342 340 341 339 335 330 321 318 319 45 85 153 91 184 66 54 344 340 354 342 54 337 353 39 79 68 0 273 136 139 135 143 97 58 126 143 121 30 52
242 271 295 314 324 328 336 340 341 339 342 340 335 329 319 316 31 160 82 155 88 80 71 9 26 17 79 340 26 281 356 82 61 90 345 66 197 144 146 119 125 103 140 138 133 77 222
239 258 287 309 322 328 333 339 341 341 341 340 337 329 317 249 158 111 179 146 137 65 55 326 29 326 27 62 203 355 286 26 97 106 296 244 153 140 137 164 129 189 69 127 111 96 25
232 247 280 307 322 327 332 338 341 340 339 340 337 332 138 84 52 262 113 90 51 49 2 8 290 184 196 125 25 317 5 43 82 86 31 67 75 59 139 83 93 145 70 54 59 85 257
228 237 271 305 323 325 331 339 341 339 340 339 338 328 160 141 180 157 125 55 40 87 22 309 12 304 330 128 100 314 166 109 140 107 154 33 40 54 102 85 36 90 81 40 3 220 232
228 235 257 302 321 325 333 340 340 340 343 340 350 125 189 158 161 149 67 36 69 216 218 278 250 298 57 124 106 186 222 139 231 107 130 168 169 172 120 136 169 143 170 159 194 198 243
220 232 257 301 324 331 339 341 342 342 345 352 92 27 68 301 140 23 70 46 188 198 196 213 137 177 163 113 145 175 235 257 204 159 148 137 80 94 357 93 43 173 173 152 93 14 39
212 220 246 295 330 337 344 344 346 346 349 31 89 75 9 5 107 57 77 207 64 217 206 208 110 179 179 162 132 129 162 198 223 175 154 193 102 246 134 175 54 111 165 109 90 218 259
204 207 232 287 332 345 343 353 347 348 353 107 65 54 303 99 69 49 95 231 258 238 210 190 275 287 162 182 160 181 198 256 180 183 162 158 117 142 145 196 168 151 192 127 121 160 190
194 199 212 282 335 351 347 360 347 352 1 52 97 44 311 93 40 64 67 238 286 283 154 269 281 263 239 184 186 222 209 214 170 156 180 197 128 172 188 53 295 187 212 172 210 199 218
187 193 193 171 344 356 354 2 351 355 20 122 87 235 310 98 62 338 316 300 258 286 241 221 248 207 215 215 215 195 198 181 163 165 171 188 193 116 157 342 191 209 199 224 112 115 202
184 185 178 157 9 2 359 2 354 357 43 84 85 26 335 47 50 81 1 294 303 265 262 227 245 245 248 248 208 214 220 203 171 188 179 123 164 178 187 190 145 194 199 204 204 232 228
183 179 174 155 104 0 10 6 357 0 26 92 34 188 182 308 340 13 318 294 296 306 299 288 296 233 223 272 286 212 199 197 193 191 140 157 209 187 253 214 177 198 212 208 218 230 233
179 177 168 160 168 23 26 11 5 10 91 77 121 137 339 172 259 350 258 263 288 338 333 308 326 337 293 251 235 280 174 185 208 170 155 151 238 111 297 264 211 238 211 211 221 229 243
177 173 169 168 169 84 33 26 19 23 82 95 12 10 106 339 89 92 223 275 304 22 277 248 22 349 316 277 293 278 234 239 168 161 181 153 143 107 263 357 349 298 228 214 200 211 220
175 173 171 168 169 150 76 51 39 40 66 112 138 103 94 213 191 191 128 322 282 271 260 293 303 245 267 332 313 275 243 251 201 223 152 147 135 123 206 50 274 237 227 198 216 239 217
172 171 173 169 173 160 149 89 65 60 63 87 129 105 107 266 243 319 247 244 303 283 268 243 270 252 302 280 310 263 236 206 226 222 193 156 143 144 193 204 294 298 221 178 178 271 216
169 170 173 173 174 170 161 124 94 84 96 84 70 106 97 105 254 284 295 281 276 285 315 277 323 302 265 233 207 239 205 171 199 171 90 112 40 187 151 194 242 247 258 189 150 287 238
168 172 172 174 174 178 171 160 129 111 91 102 111 131 95 86 267 143 245 229 254 341 256 311 337 325 298 243 227 242 240 186 171 170 167 156 161 210 193 220 276 246 234 147 140 237 265
170 174 173 175 177 182 179 179 161 139 134 99 239 199 101 96 252 213 210 202 277 185 245 334 336 128 296 278 273 193 231 236 183 170 169 169 172 181 164 219 265 175 84 176 221 287 253
171 174 173 174 178 183 191 187 180 165 154 110 88 308 119 153 245 224 225 223 220 228 271 187 246 354 306 336 25 330 317 22 279 216 52 192 182 178 177 208 232 206 210 218 189 242 294